Time,TemperatureF,DewpointF,PressureIn,WindDirection,WindDirectionDegrees,WindSpeedMPH,WindSpeedGustMPH,Humidity,HourlyPrecipIn,Conditions,Clouds,dailyrainin,SoftwareType,DateUTC
2013-03-16 00:03:00,56.0,44.0,29.94,SW,236,0.0,1.0,63,0.00,,,0.00,,2013-03-16 04:03:00,
2013-03-16 00:13:00,56.0,44.0,29.94,SW,236,0.0,1.0,63,0.00,,,0.00,,2013-03-16 04:13:00,
2013-03-16 00:23:00,56.0,43.0,29.94,SW,236,0.0,0.0,62,0.00,,,0.00,,2013-03-16 04:23:00,
2013-03-16 00:33:00,55.0,43.0,29.93,SW,236,0.0,2.0,64,0.00,,,0.00,,2013-03-16 04:33:00,
2013-03-16 00:43:00,55.0,43.0,29.93,SW,236,0.0,2.0,64,0.00,,,0.00,,2013-03-16 04:43:00,
2013-03-16 00:52:00,54.0,43.0,29.93,SW,236,0.0,0.0,66,0.00,,,0.00,,2013-03-16 04:52:00,
2013-03-16 01:02:00,53.0,43.0,29.93,SW,236,0.0,0.0,68,0.00,,,0.00,,2013-03-16 05:02:00,
2013-03-16 01:12:00,53.0,43.0,29.93,SW,236,0.0,0.0,68,0.00,,,0.00,,2013-03-16 05:12:00,
2013-03-16 01:22:00,54.0,43.0,29.92,SW,233,1.0,3.0,67,0.00,,,0.00,,2013-03-16 05:22:00,
2013-03-16 01:32:00,56.0,44.0,29.92,SW,234,0.0,2.0,63,0.00,,,0.00,,2013-03-16 05:32:00,
2013-03-16 01:42:00,56.0,44.0,29.92,SW,234,0.0,2.0,63,0.00,,,0.00,,2013-03-16 05:42:00,
2013-03-16 01:52:00,55.0,44.0,29.91,SW,234,0.0,2.0,66,0.00,,,0.00,,2013-03-16 05:52:00,
2013-03-16 02:02:00,56.0,44.0,29.91,SW,227,1.0,3.0,64,0.00,,,0.00,,2013-03-16 06:02:00,
2013-03-16 02:12:00,56.0,44.0,29.91,SW,227,1.0,3.0,64,0.00,,,0.00,,2013-03-16 06:12:00,
2013-03-16 02:22:00,57.0,44.0,29.91,West,273,1.0,5.0,61,0.00,,,0.00,,2013-03-16 06:22:00,
2013-03-16 02:32:00,58.0,44.0,29.91,West,268,1.0,6.0,60,0.00,,,0.00,,2013-03-16 06:32:00,
2013-03-16 02:42:00,58.0,44.0,29.91,West,268,1.0,6.0,60,0.00,,,0.00,,2013-03-16 06:42:00,
2013-03-16 02:52:00,58.0,44.0,29.91,West,268,1.0,6.0,60,0.00,,,0.00,,2013-03-16 06:52:00,
2013-03-16 03:02:00,58.0,44.0,29.91,South,188,1.0,8.0,60,0.00,,,0.00,,2013-03-16 07:02:00,
2013-03-16 03:12:00,58.0,44.0,29.91,South,188,1.0,8.0,60,0.00,,,0.00,,2013-03-16 07:12:00,
2013-03-16 03:22:00,57.0,43.0,29.91,West,260,1.0,5.0,60,0.00,,,0.00,,2013-03-16 07:22:00,
2013-03-16 03:32:00,57.0,44.0,29.91,SSW,202,1.0,6.0,62,0.00,,,0.00,,2013-03-16 07:32:00,
2013-03-16 03:42:00,57.0,44.0,29.91,SSW,202,1.0,6.0,62,0.00,,,0.00,,2013-03-16 07:42:00,
2013-03-16 03:52:00,57.0,44.0,29.91,SSW,202,1.0,6.0,62,0.00,,,0.00,,2013-03-16 07:52:00,
2013-03-16 04:03:00,57.0,44.0,29.91,SSW,202,1.0,6.0,62,0.00,,,0.00,,2013-03-16 08:03:00,
2013-03-16 04:23:00,55.0,43.0,29.90,West,265,0.0,6.0,64,0.00,,,0.00,,2013-03-16 08:23:00,
2013-03-16 04:33:00,55.0,43.0,29.90,ENE,61,0.0,2.0,65,0.00,,,0.00,,2013-03-16 08:33:00,
2013-03-16 04:42:00,55.0,43.0,29.90,ENE,61,0.0,2.0,65,0.00,,,0.00,,2013-03-16 08:42:00,
2013-03-16 04:52:00,56.0,44.0,29.88,ESE,113,1.0,2.0,64,0.00,,,0.00,,2013-03-16 08:52:00,
2013-03-16 05:02:00,56.0,44.0,29.88,South,180,0.0,3.0,65,0.00,,,0.00,,2013-03-16 09:02:00,
2013-03-16 05:12:00,56.0,44.0,29.88,South,180,0.0,3.0,65,0.00,,,0.00,,2013-03-16 09:12:00,
2013-03-16 05:22:00,57.0,44.0,29.88,WSW,240,2.0,7.0,62,0.00,,,0.00,,2013-03-16 09:22:00,
2013-03-16 05:33:00,57.0,44.0,29.88,SW,236,1.0,5.0,61,0.00,,,0.00,,2013-03-16 09:33:00,
2013-03-16 05:42:00,57.0,44.0,29.88,SW,236,1.0,5.0,61,0.00,,,0.00,,2013-03-16 09:42:00,
2013-03-16 05:52:00,57.0,44.0,29.88,WSW,241,2.0,5.0,62,0.00,,,0.00,,2013-03-16 09:52:00,
2013-03-16 06:03:00,57.0,45.0,29.88,WSW,246,1.0,3.0,63,0.00,,,0.00,,2013-03-16 10:03:00,
2013-03-16 06:12:00,57.0,45.0,29.88,WSW,246,1.0,3.0,63,0.00,,,0.00,,2013-03-16 10:12:00,
2013-03-16 06:23:00,57.0,44.0,29.88,WSW,252,2.0,7.0,62,0.00,,,0.00,,2013-03-16 10:23:00,
2013-03-16 06:32:00,57.0,44.0,29.87,WSW,254,1.0,3.0,62,0.00,,,0.00,,2013-03-16 10:32:00,
2013-03-16 06:42:00,57.0,44.0,29.87,WSW,254,1.0,3.0,62,0.00,,,0.00,,2013-03-16 10:42:00,
2013-03-16 06:52:00,57.0,44.0,29.88,WSW,254,1.0,5.0,62,0.00,,,0.00,,2013-03-16 10:52:00,
2013-03-16 07:03:00,57.0,44.0,29.88,SW,236,2.0,6.0,61,0.00,,,0.00,,2013-03-16 11:03:00,
2013-03-16 07:12:00,57.0,44.0,29.88,SW,236,2.0,6.0,61,0.00,,,0.00,,2013-03-16 11:12:00,
2013-03-16 07:22:00,57.0,44.0,29.89,West,259,1.0,8.0,61,0.00,,,0.00,,2013-03-16 11:22:00,
2013-03-16 07:33:00,56.0,44.0,29.89,SW,230,1.0,4.0,63,0.00,,,0.00,,2013-03-16 11:33:00,
2013-03-16 07:43:00,56.0,44.0,29.89,SW,230,1.0,4.0,63,0.00,,,0.00,,2013-03-16 11:43:00,
2013-03-16 07:52:00,56.0,44.0,29.90,WSW,258,2.0,5.0,63,0.00,,,0.00,,2013-03-16 11:52:00,
2013-03-16 08:02:00,56.0,44.0,29.90,SW,236,2.0,7.0,63,0.00,,,0.00,,2013-03-16 12:02:00,
2013-03-16 08:12:00,56.0,44.0,29.90,SW,236,2.0,7.0,63,0.00,,,0.00,,2013-03-16 12:12:00,
2013-03-16 08:22:00,56.0,44.0,29.90,SW,221,3.0,8.0,64,0.00,,,0.00,,2013-03-16 12:22:00,
2013-03-16 08:32:00,56.0,44.0,29.90,SW,221,3.0,8.0,64,0.00,,,0.00,,2013-03-16 12:32:00,
2013-03-16 08:42:00,56.0,44.0,29.90,SW,221,3.0,8.0,64,0.00,,,0.00,,2013-03-16 12:42:00,
2013-03-16 08:52:00,57.0,44.0,29.90,SW,232,3.0,8.0,62,0.00,,,0.00,,2013-03-16 12:52:00,
2013-03-16 09:02:00,58.0,44.0,29.90,SW,225,2.0,8.0,60,0.00,,,0.00,,2013-03-16 13:02:00,
2013-03-16 09:12:00,58.0,44.0,29.90,SW,225,2.0,8.0,60,0.00,,,0.00,,2013-03-16 13:12:00,
2013-03-16 09:22:00,59.0,45.0,29.90,SW,235,2.0,9.0,59,0.00,,,0.00,,2013-03-16 13:22:00,
2013-03-16 09:32:00,59.0,45.0,29.90,South,188,4.0,9.0,59,0.00,,,0.00,,2013-03-16 13:32:00,
2013-03-16 09:42:00,59.0,45.0,29.90,South,188,4.0,9.0,59,0.00,,,0.00,,2013-03-16 13:42:00,
2013-03-16 09:52:00,60.0,45.0,29.90,South,190,2.0,8.0,57,0.00,,,0.00,,2013-03-16 13:52:00,
2013-03-16 10:03:00,61.0,45.0,29.90,WSW,240,3.0,6.0,56,0.00,,,0.00,,2013-03-16 14:03:00,
2013-03-16 10:12:00,61.0,45.0,29.90,WSW,240,3.0,6.0,56,0.00,,,0.00,,2013-03-16 14:12:00,
2013-03-16 10:22:00,62.0,46.0,29.90,SW,215,3.0,9.0,55,0.00,,,0.00,,2013-03-16 14:22:00,
2013-03-16 10:32:00,63.0,46.0,29.89,SSW,201,3.0,9.0,54,0.00,,,0.00,,2013-03-16 14:32:00,
2013-03-16 10:42:00,63.0,46.0,29.89,SSW,201,3.0,9.0,54,0.00,,,0.00,,2013-03-16 14:42:00,
2013-03-16 10:52:00,64.0,46.0,29.89,West,267,4.0,8.0,52,0.00,,,0.00,,2013-03-16 14:52:00,
2013-03-16 11:03:00,66.0,46.0,29.88,SSW,192,4.0,9.0,49,0.00,,,0.00,,2013-03-16 15:03:00,
2013-03-16 11:13:00,66.0,46.0,29.88,SSW,192,4.0,9.0,49,0.00,,,0.00,,2013-03-16 15:13:00,
2013-03-16 11:23:00,67.0,47.0,29.88,WSW,238,2.0,8.0,48,0.00,,,0.00,,2013-03-16 15:23:00,
2013-03-16 11:33:00,68.0,48.0,29.87,WSW,241,2.0,9.0,48,0.00,,,0.00,,2013-03-16 15:33:00,
2013-03-16 11:43:00,68.0,48.0,29.87,WSW,241,2.0,9.0,48,0.00,,,0.00,,2013-03-16 15:43:00,
2013-03-16 11:53:00,70.0,48.0,29.87,NW,309,2.0,7.0,46,0.00,,,0.00,,2013-03-16 15:53:00,
2013-03-16 12:03:00,72.0,48.0,29.85,WSW,254,2.0,8.0,43,0.00,,,0.00,,2013-03-16 16:03:00,
2013-03-16 12:13:00,72.0,48.0,29.85,WSW,254,2.0,8.0,43,0.00,,,0.00,,2013-03-16 16:13:00,
2013-03-16 12:23:00,73.0,50.0,29.85,WNW,284,3.0,11.0,45,0.00,,,0.00,,2013-03-16 16:23:00,
2013-03-16 12:33:00,73.0,49.0,29.84,WSW,248,4.0,9.0,42,0.00,,,0.00,,2013-03-16 16:33:00,
2013-03-16 12:42:00,73.0,49.0,29.84,WSW,248,4.0,9.0,42,0.00,,,0.00,,2013-03-16 16:42:00,
2013-03-16 12:53:00,73.0,49.0,29.83,SSW,202,4.0,14.0,42,0.00,,,0.00,,2013-03-16 16:53:00,
2013-03-16 13:03:00,74.0,49.0,29.83,SW,230,3.0,11.0,42,0.00,,,0.00,,2013-03-16 17:03:00,
2013-03-16 13:13:00,74.0,49.0,29.83,SW,230,3.0,11.0,42,0.00,,,0.00,,2013-03-16 17:13:00,
2013-03-16 13:23:00,75.0,50.0,29.83,SW,232,5.0,10.0,42,0.00,,,0.00,,2013-03-16 17:23:00,
2013-03-16 13:33:00,76.0,51.0,29.83,WNW,286,3.0,10.0,41,0.00,,,0.00,,2013-03-16 17:33:00,
2013-03-16 13:42:00,76.0,51.0,29.83,WNW,286,3.0,10.0,41,0.00,,,0.00,,2013-03-16 17:42:00,
2013-03-16 13:52:00,76.0,51.0,29.82,WNW,288,4.0,11.0,41,0.00,,,0.00,,2013-03-16 17:52:00,
2013-03-16 14:03:00,77.0,50.0,29.81,SSW,205,3.0,10.0,39,0.00,,,0.00,,2013-03-16 18:03:00,
2013-03-16 14:13:00,77.0,50.0,29.81,SSW,205,3.0,10.0,39,0.00,,,0.00,,2013-03-16 18:13:00,
2013-03-16 14:23:00,76.0,50.0,29.80,SW,223,5.0,13.0,40,0.00,,,0.00,,2013-03-16 18:23:00,
2013-03-16 14:33:00,78.0,51.0,29.79,SSW,201,3.0,12.0,39,0.00,,,0.00,,2013-03-16 18:33:00,
2013-03-16 14:43:00,78.0,51.0,29.79,SSW,201,3.0,12.0,39,0.00,,,0.00,,2013-03-16 18:43:00,
2013-03-16 14:52:00,78.0,49.0,29.78,SW,223,6.0,14.0,36,0.00,,,0.00,,2013-03-16 18:52:00,
2013-03-16 15:02:00,77.0,49.0,29.78,SW,218,5.0,10.0,38,0.00,,,0.00,,2013-03-16 19:02:00,
2013-03-16 15:12:00,77.0,49.0,29.78,SW,218,5.0,10.0,38,0.00,,,0.00,,2013-03-16 19:12:00,
2013-03-16 15:22:00,75.0,48.0,29.78,SW,234,6.0,11.0,39,0.00,,,0.00,,2013-03-16 19:22:00,
2013-03-16 15:33:00,75.0,48.0,29.77,SW,229,5.0,17.0,39,0.00,,,0.00,,2013-03-16 19:33:00,
2013-03-16 15:42:00,75.0,48.0,29.77,SW,229,5.0,17.0,39,0.00,,,0.00,,2013-03-16 19:42:00,
2013-03-16 15:52:00,75.0,49.0,29.77,SSE,168,4.0,11.0,40,0.00,,,0.00,,2013-03-16 19:52:00,
2013-03-16 16:02:00,76.0,48.0,29.76,SW,230,5.0,18.0,37,0.00,,,0.00,,2013-03-16 20:02:00,
2013-03-16 16:12:00,76.0,48.0,29.76,SW,230,5.0,18.0,37,0.00,,,0.00,,2013-03-16 20:12:00,
2013-03-16 16:22:00,77.0,47.0,29.75,WNW,288,7.0,16.0,35,0.00,,,0.00,,2013-03-16 20:22:00,
2013-03-16 16:33:00,77.0,47.0,29.75,SW,216,7.0,15.0,35,0.00,,,0.00,,2013-03-16 20:33:00,
2013-03-16 16:42:00,77.0,47.0,29.75,SW,216,7.0,15.0,35,0.00,,,0.00,,2013-03-16 20:42:00,
2013-03-16 16:52:00,78.0,47.0,29.75,SW,231,6.0,15.0,34,0.00,,,0.00,,2013-03-16 20:52:00,
2013-03-16 17:02:00,78.0,47.0,29.75,West,261,3.0,19.0,34,0.00,,,0.00,,2013-03-16 21:02:00,
2013-03-16 17:12:00,78.0,47.0,29.75,West,261,3.0,19.0,34,0.00,,,0.00,,2013-03-16 21:12:00,
2013-03-16 17:23:00,77.0,47.0,29.75,West,260,5.0,16.0,35,0.00,,,0.00,,2013-03-16 21:23:00,
2013-03-16 17:33:00,76.0,47.0,29.75,WSW,252,5.0,17.0,36,0.00,,,0.00,,2013-03-16 21:33:00,
2013-03-16 17:43:00,76.0,47.0,29.75,WSW,252,5.0,17.0,36,0.00,,,0.00,,2013-03-16 21:43:00,
2013-03-16 17:52:00,76.0,46.0,29.75,West,265,8.0,27.0,35,0.00,,,0.00,,2013-03-16 21:52:00,
2013-03-16 18:03:00,75.0,46.0,29.75,SW,221,3.0,14.0,36,0.00,,,0.00,,2013-03-16 22:03:00,
2013-03-16 18:13:00,75.0,46.0,29.75,SW,221,3.0,14.0,36,0.00,,,0.00,,2013-03-16 22:13:00,
2013-03-16 18:23:00,75.0,46.0,29.75,West,280,4.0,12.0,36,0.00,,,0.00,,2013-03-16 22:23:00,
2013-03-16 18:33:00,75.0,47.0,29.75,SW,233,5.0,19.0,37,0.00,,,0.00,,2013-03-16 22:33:00,
2013-03-16 18:42:00,75.0,47.0,29.75,SW,233,5.0,19.0,37,0.00,,,0.00,,2013-03-16 22:42:00,
2013-03-16 18:52:00,74.0,47.0,29.76,West,266,3.0,15.0,38,0.00,,,0.00,,2013-03-16 22:52:00,
2013-03-16 19:02:00,73.0,47.0,29.76,SSW,205,3.0,11.0,39,0.00,,,0.00,,2013-03-16 23:02:00,
2013-03-16 19:13:00,73.0,47.0,29.76,SSW,205,3.0,11.0,39,0.00,,,0.00,,2013-03-16 23:13:00,
2013-03-16 19:23:00,73.0,46.0,29.77,WSW,245,5.0,12.0,38,0.00,,,0.00,,2013-03-16 23:23:00,
2013-03-16 19:33:00,72.0,45.0,29.78,WSW,250,4.0,10.0,38,0.00,,,0.00,,2013-03-16 23:33:00,
2013-03-16 19:42:00,72.0,45.0,29.78,WSW,250,4.0,10.0,38,0.00,,,0.00,,2013-03-16 23:42:00,
2013-03-16 19:52:00,71.0,45.0,29.78,WSW,246,2.0,7.0,39,0.00,,,0.00,,2013-03-16 23:52:00,
2013-03-16 20:02:00,70.0,45.0,29.79,SSE,163,5.0,12.0,40,0.00,,,0.00,,2013-03-17 00:02:00,
2013-03-16 20:12:00,70.0,45.0,29.79,SSE,163,5.0,12.0,40,0.00,,,0.00,,2013-03-17 00:12:00,
2013-03-16 20:23:00,70.0,45.0,29.80,WSW,252,2.0,6.0,40,0.00,,,0.00,,2013-03-17 00:23:00,
2013-03-16 20:33:00,69.0,44.0,29.80,SW,221,3.0,8.0,41,0.00,,,0.00,,2013-03-17 00:33:00,
2013-03-16 20:42:00,69.0,44.0,29.80,SW,221,3.0,8.0,41,0.00,,,0.00,,2013-03-17 00:42:00,
2013-03-16 20:52:00,69.0,44.0,29.81,South,189,2.0,7.0,40,0.00,,,0.00,,2013-03-17 00:52:00,
2013-03-16 21:03:00,68.0,43.0,29.82,West,262,2.0,6.0,41,0.00,,,0.00,,2013-03-17 01:03:00,
2013-03-16 21:12:00,68.0,43.0,29.82,West,262,2.0,6.0,41,0.00,,,0.00,,2013-03-17 01:12:00,
2013-03-16 21:22:00,68.0,43.0,29.83,WSW,248,3.0,7.0,41,0.00,,,0.00,,2013-03-17 01:22:00,
2013-03-16 21:32:00,67.0,43.0,29.84,West,264,2.0,4.0,41,0.00,,,0.00,,2013-03-17 01:32:00,
2013-03-16 21:42:00,67.0,43.0,29.84,West,264,2.0,4.0,41,0.00,,,0.00,,2013-03-17 01:42:00,
2013-03-16 21:52:00,67.0,43.0,29.84,SW,233,2.0,4.0,42,0.00,,,0.00,,2013-03-17 01:52:00,
2013-03-16 22:03:00,67.0,43.0,29.85,SW,225,2.0,10.0,41,0.00,,,0.00,,2013-03-17 02:03:00,
2013-03-16 22:13:00,67.0,43.0,29.85,SW,225,2.0,10.0,41,0.00,,,0.00,,2013-03-17 02:13:00,
2013-03-16 22:22:00,66.0,42.0,29.85,West,267,2.0,6.0,42,0.00,,,0.00,,2013-03-17 02:22:00,
2013-03-16 22:33:00,66.0,42.0,29.86,WSW,242,2.0,5.0,42,0.00,,,0.00,,2013-03-17 02:33:00,
2013-03-16 22:43:00,66.0,42.0,29.86,WSW,242,2.0,5.0,42,0.00,,,0.00,,2013-03-17 02:43:00,
2013-03-16 22:52:00,65.0,43.0,29.86,SW,231,2.0,6.0,44,0.00,,,0.00,,2013-03-17 02:52:00,
2013-03-16 23:03:00,65.0,43.0,29.86,WSW,255,0.0,4.0,44,0.00,,,0.00,,2013-03-17 03:03:00,
2013-03-16 23:12:00,65.0,43.0,29.86,WSW,255,0.0,4.0,44,0.00,,,0.00,,2013-03-17 03:12:00,
2013-03-16 23:23:00,64.0,42.0,29.87,WSW,242,0.0,5.0,44,0.00,,,0.00,,2013-03-17 03:23:00,
2013-03-16 23:34:00,64.0,42.0,29.87,WSW,240,0.0,4.0,45,0.00,,,0.00,,2013-03-17 03:34:00,
2013-03-16 23:43:00,64.0,42.0,29.87,WSW,240,0.0,4.0,45,0.00,,,0.00,,2013-03-17 03:43:00,
2013-03-16 23:52:00,63.0,42.0,29.88,SW,228,1.0,4.0,46,0.00,,,0.00,,2013-03-17 03:52:00,